« Back
NWS Peachtree City, Ga » Text Product » GA Regional Weather Roundup


Printer-friendly Version
Current Version              Previous Versions:   1  2  3  4  5  6  7  8  9  

Regional Weather Roundup

969
ASUS42 KFFC 241403
RWRGA
WEATHER ROUNDUP FOR GEORGIA
NATIONAL WEATHER SERVICE PEACHTREE CITY GA
1000 AM EDT SUN MAY 24 2015

NOTE: "FAIR" INDICATES FEW OR NO CLOUDS BELOW 12,000 FEET WITH NO
SIGNIFICANT WEATHER AND/OR OBSTRUCTIONS TO VISIBILITY.

* = USE WITH CAUTION. THE STATIONS MARKED WITH AN ASTERISK MAY NOT
REPORT WEATHER SUCH AS PRECIPITATION, FOG, OR THUNDER AND ARE NOT
QUALITY CONTROLLED BY NWS.

THE REMARK "TC" DENOTES TEMPERATURE READING IN DEGREES CELSIUS.

GAZ001>058-241500-
NORTH GEORGIA

CITY           SKY/WX    TMP DP  RH WIND       PRES   REMARKS
ATLANTA        PTSUNNY   71  61  70 SE10      30.36R
ATHENS         MOSUNNY   72  60  66 E5        30.38S
CHAMBLEE       CLOUDY    70  62  76 VRB6      30.36S
PEACHTREE CITY CLOUDY    72  63  73 SE9       30.35S
ROME           MOSUNNY   71  62  73 SE6       30.33F
WEST ATLANTA   PTSUNNY   70  61  73 SE8       30.36R
GAINESVILLE    PTSUNNY   68  59  73 E8        30.41S
CARTERSVILLE   MOSUNNY   72  61  68 SE10G17   30.35S


CITY           SKY/WX    TMP DP  RH WIND       PRES   REMARKS
DALTON*        PTSUNNY   70  61  73 SE10      30.36R
LAWRENCEVILLE* PTSUNNY   70  55  60 E8        30.36S
MARIETTA       PTSUNNY   72  63  73 SE13      30.36S
KENNESAW*      PTSUNNY   70  61  73 SE9       30.37S
BLAIRSVILLE*     N/A     67  38  34 S8        30.41S
$$

GAZ059>098-102>109-241500-
CENTRAL GEORGIA

CITY           SKY/WX    TMP DP  RH WIND       PRES   REMARKS
AUGUSTA-BUSH   SUNNY     75  59  57 SE9       30.36S
AUGUSTA-DANIEL SUNNY     75  58  55 SE9       30.37S
COLUMBUS       CLOUDY    72  64  76 SE8       30.30S
MACON          MOSUNNY   76  64  66 S10       30.33S
ROBINS AFB     MOSUNNY   76  65  68 E10       30.32F


CITY           SKY/WX    TMP DP  RH WIND       PRES   REMARKS
LAGRANGE*      CLOUDY    76  70  82 SE10      30.32S
SYLVANIA*      SUNNY     77  64  62 SE7       30.36S
MILLEDGEVILLE* PTSUNNY   73  64  73 E3        30.35F
$$

GAZ099>101-110>166-241500-
SOUTH GEORGIA

CITY           SKY/WX    TMP DP  RH WIND       PRES   REMARKS
SAVANNAH       PTSUNNY   79  61  53 E9        30.34S
VALDOSTA       MOSUNNY   78  66  66 E12       30.28S
ALMA           MOSUNNY   78  64  61 E8        30.32R
ALBANY         PTSUNNY   77  67  71 SE10      30.30F
MOODY AFB      MOSUNNY   78  65  63 E15       30.28S
BRUNSWICK      MOSUNNY   79  61  53 E13       30.32S


CITY           SKY/WX    TMP DP  RH WIND       PRES   REMARKS
BAINBRIDGE*    MOSUNNY   81  72  74 SE10G17   30.26F
MOULTRIE*      MOSUNNY   77  66  69 SE8       30.29S
VIDALIA*       SUNNY     77  63  61 SE7       30.34R
WAYCROSS*      MOSUNNY   79  67  65 E15       30.31S
DOUGLAS*       MOSUNNY   79  63  57 SE7G17    30.33S
$$



USA.gov is the U.S. government's official web portal to all federal, state and local government web resources and services.